Weather in Mikhaylovka

Russia / Oryol Oblast     52°52′47″N   36°09′37″E
temp.,
°C
wind,
m/s
gust,
m/s
humid.,
%
clouds,
%
prec.,
mm/h
press.,
hPa
HPBL,
m
27 october, wed
wed2700:00+3sw61563100 0.0 1025400
03:00+2sw61468100 0.0 1024364
06:00+2sw61477100 0.0 1022338
09:00+3sw715756 0.0 1021464
12:00+7sw812635 0.0 1020756
15:00+9wsw71160100 0.0 1019865
18:00+7w61068100 0.0 1020568
21:00+5wsw4107977 0.0 1020348
28 october, thu
thu2800:00+3wsw49946 0.0 1021241
03:00+3sw41194100 0.0 1020245
06:00+5sw61487100 0.0 1017405
09:00+6sw71393100 1.7 1016581
12:00+7wsw61295100 0.8 1016509
15:00+8w51193100 1.1 1016544
18:00+9wnw51289100 0.1 1018440
21:00+7nnw5118166 0.1 1020380
29 october, fri
fri2900:00+7nnw4983100 0.0 1022377
03:00+5n3894100 0.0 1025239
06:00+6nne3475100 0.0 1027126
09:00+7ene127062 0.0 1028206
12:00+9se116165 0.0 1029788
15:00+10sw22585 0.0 1029754
18:00+6sw22735 0.0 103010
21:00+5ssw227913 0.0 103122
30 october, sat
sat3000:00+4ssw34845 0.0 103144
03:00+4sw34895 0.0 103265
06:00+3sw33915 0.0 103251
09:00+4ssw36885 0.0 1033160
12:00+9sw45695 0.0 1033405
15:00+10ssw45605 0.0 1032558
18:00+7ssw35789 0.0 103267
21:00+5ssw36895 0.0 103299
31 october, sun
sun3100:00+5ssw36915 0.0 103297
03:00+4ssw35915 0.0 103384
06:00+3ssw35915 0.0 103273
09:00+4ssw36835 0.0 1032145
12:00+9ssw46615 0.0 1031391
15:00+11ssw46565 0.0 1029550
18:00+7s34740 0.0 102948
21:00+5sse36770 0.0 102986